Regional Weather Roundup
Issued by NWS Sterling, VA

Home | Current Version | Previous Version | Text Only | Print | Product List | Glossary Off
Versions: 1 2 3 4 5 6 7 8 9 10 11 12 13 14 15 16 17 18 19 20 21 22 23 24 25 26 27

000
ASUS41 KLWX 140611
RWRLWX

REGIONAL WEATHER ROUNDUP
NATIONAL WEATHER SERVICE BALTIMORE MD/WASHINGTON DC
100 AM EST THU DEC 14 2017

Note: "FAIR" indicates few or no clouds below 12,000 feet
with no significant weather and/or obstructions to visibility.
 TC=TEMPERATURE CELSIUS

 * =Non NWS site. Station does not report precipitation (e.g. rain,
    snow, etc.), thunder, or fog.

DCZ001-MDZ009-015-VAZ040>042-051-053>054-140700-
WASHINGTON METRO

CITY           SKY/WX    TMP DP  RH WIND       PRES   REMARKS
WASHINGTON NAT CLOUDY    37  15  40 S12       29.57F
DULLES         CLOUDY    33  13  43 S9        29.54F WCI  25
ANDREWS AFB    CLOUDY    36  14  40 S14       29.54F WCI  27
FT BELVOIR     CLOUDY    35  14  42 S6        29.56F
QUANTICO       PTCLDY    37  21  52 SW13      29.58F WCI  29
COLLEGE PARK*  CLOUDY    36  13  38 S7        29.56F
LEESBURG*      CLOUDY    34  18  51 S6        29.54F
MANASSAS*      PTCLDY    30  15  53 S5        29.55F
GAITHERSBURG*  CLOUDY    33  14  45 S8        29.53F WCI  26

$$

MDZ006>007-011-014-140700-
BALTIMORE METRO

CITY           SKY/WX    TMP DP  RH WIND       PRES   REMARKS
BWI AIRPORT    CLOUDY    31  21  66 CALM      29.56F
MD SCIENCE CTR   N/A     35  19  52 MISG      29.58F
MARTIN STATE   CLOUDY    36  27  69 S7        29.59F
ANNAPOLIS      CLOUDY    37  18  46 S9        29.56F
FORT MEADE*    CLOUDY    30  18  59 CALM      29.58F

$$

MDZ012-015-019>023-140700-
MARYLAND EASTERN SHORE

CITY           SKY/WX    TMP DP  RH WIND       PRES   REMARKS
OCEAN CITY     MOCLDY    35  29  78 SW14      29.65F WCI  26
SALISBURY      MOCLDY    33  26  75 S10       29.62F WCI  25
BAY BRIDGE AP* CLOUDY    39  18  41 S14G24    29.57F
CAMBRIDGE*     CLOUDY    39  21  48 S12G26    29.60F
EASTON*        CLOUDY    39  19  44 SW15G21   29.62F

$$

MDZ017>025-140700-
SOUTHERN MARYLAND

CITY           SKY/WX    TMP DP  RH WIND       PRES   REMARKS
PATUXENT RIVER CLOUDY    38  18  44 SW12G21   29.60F
ST INIGOES     MOCLDY    39  20  46 S20G28    29.60F
LEONARDTOWN*   CLOUDY    37  19  48 SW12G20   29.60F

$$

MDZ003>005-140700-
NORTH CENTRAL MARYLAND

CITY           SKY/WX    TMP DP  RH WIND       PRES   REMARKS
FREDERICK*     CLOUDY    28  28 100 CALM      29.56F
HAGERSTOWN APT CLOUDY    27  24  89 N3        29.48F
WESTMINSTER*   CLOUDY    27  25  93 SE8       29.51F WCI  18

$$

MDZ501>502-140700-
WESTERN MARYLAND

CITY           SKY/WX    TMP DP  RH WIND       PRES   REMARKS
OAKLAND*       CLOUDY    28  27  93 SW15G23   29.33F WCI  17
CUMBERLAND*    CLOUDY    28  28 100 CALM      29.51F

$$

VAZ025>031-140700-
SHENANDOAH VALLEY

CITY           SKY/WX    TMP DP  RH WIND       PRES   REMARKS
WINCHESTER*    CLOUDY    28  18  64 CALM      29.48F
FRONT ROYAL*   MOCLDY    34  14  44 S3        29.47F
LURAY*         MOCLDY    32  18  55 SW6       29.48F
NEW MARKET*    CLOUDY    34  12  41 W7        29.47F
STAUNTON*      CLOUDY    35  14  43 S8        29.50F WCI  28
WAYNESBORO*    CLOUDY    36  14  41 SW5       29.49F

$$

WVZ021-048>050-054>055-140700-
EASTERN WEST VIRGINIA PANHANDLE

CITY           SKY/WX    TMP DP  RH WIND       PRES   REMARKS
MARTINSBURG    CLOUDY    27  24  89 CALM      29.49F
PETERSBURG*    CLOUDY    39  28  63 S7        29.44F

$$

VAZ036>039-050-140700-
CENTRAL FOOTHILLS

CITY           SKY/WX    TMP DP  RH WIND       PRES   REMARKS
CHARLOTTESVILL CLEAR     32  15  49 S9        29.53F WCI  24
CULPEPER*      FAIR      32  12  43 S5        29.55F
ORANGE*        CLEAR     32  14  47 CALM      29.54F
GORDONSVILLE*  CLEAR     29  15  55 SW6       29.54F
WARRENTON*     CLEAR     35  10  36 S6        29.53F

$$

VAZ055>057-140700-
NORTH AND CENTRAL PIEDMONT

CITY           SKY/WX    TMP DP  RH WIND       PRES   REMARKS
FREDERICKSBRG* PTCLDY    36  18  48 S10       29.56F WCI  28
STAFFORD*      CLOUDY    34  14  44 S6        29.60F

$$

NCZ024-NYZ072-PAZ021-071-VAZ022-071-140700-
OTHER REGIONAL OBSERVATIONS

CITY           SKY/WX    TMP DP  RH WIND       PRES   REMARKS
NEW YORK CITY  LGT SNOW  24  19  81 CALM      29.65F
PHILADELPHIA   CLOUDY    28  25  88 SE5       29.62F
PITTSBURGH     LGT SNOW  29  24  82 SW7       29.37F
ROANOKE        CLOUDY    42  15  33 SW5       29.56F
RICHMOND       PTCLDY    38  18  44 S15       29.61F
RALEIGH        PTCLDY    36  19  50 SW12      29.72F WCI  28

$$

ANZ530>537-140700-
MARINE OBSERVATIONS

STATION/POSITION TIME  TEMP    WIND        PRES
                       AIR SEA DIR/SP/G
                 (UTC) (F)     (DEG/KT/KT) (MB)
THOMAS PT LIGHT  0600   39 44  200/ 23/ 26   N/A
BALT KEY BRIDGE  0542          200/  8/ 10 1001.1F
COVE POINT       0542          220/ 19/ 23 1002.7F
LEWISETTA        0542          230/ 18/ 22 1002.8F
SOLOMONS ISLAND  0512   39 46  200/ 17/ 20 1002.4
PINEY POINT      0536          230/ 21/ 22   N/A

$$





USA.gov is the U.S. government's official web portal to all federal, state and local government web resources and services.